Temp
14 14 15 15 16 17 18 19 20 21 22 22 22 23 25 26 26 26 25 25 25 27 26 24 24 24 23 23 21 20 21 21 21 21 19 18 18 16 16 17 17 16 17 16 14
13 14 15 15 15 17 18 19 20 21 22 23 23 23 25 26 26 26 26 26 28 27 26 24 24 24 24 22 21 21 21 20 20 20 20 18 18 18 18 17 16 16 15 14 14
13 14 14 15 16 16 18 19 20 21 22 23 23 23 25 26 25 26 26 27 29 28 26 26 23 24 22 22 20 19 21 19 18 19 19 18 18 17 18 18 17 17 16 15 15
13 13 14 15 16 17 18 19 20 21 22 23 24 24 26 25 26 27 26 28 29 27 26 24 24 23 20 21 19 20 18 19 18 18 19 19 18 18 18 20 19 18 16 15 16
13 13 13 14 16 16 18 19 20 21 23 23 24 25 25 24 25 26 26 26 27 26 25 24 23 22 21 21 21 19 18 18 18 18 18 18 19 19 18 17 17 16 16 16 16
13 13 13 15 16 17 18 20 21 21 23 24 24 25 25 24 26 25 25 26 27 27 24 24 24 22 20 19 20 18 19 18 18 18 18 19 17 19 17 17 17 17 17 16 16
13 13 12 16 16 17 18 20 21 22 23 24 24 25 23 24 26 25 26 26 27 26 23 22 21 23 20 19 20 19 19 20 19 19 19 19 20 19 18 17 17 17 17 16 15
13 14 13 15 16 17 19 21 22 23 23 24 25 24 24 26 26 25 24 25 26 26 23 22 22 20 20 20 20 21 20 21 20 19 18 20 22 18 17 18 18 17 16 16 15
13 13 13 14 17 17 20 21 23 23 23 24 24 23 24 26 26 25 25 24 24 24 24 23 22 21 22 21 21 20 22 20 20 20 19 19 21 18 17 18 18 17 17 16 16
13 13 13 14 16 18 20 22 23 23 23 23 23 23 23 22 24 25 25 25 24 23 24 23 21 21 21 22 23 22 21 20 21 20 19 19 21 18 18 18 19 18 17 17 16
11 13 14 14 16 18 20 21 17 19 18 19 20 21 21 23 23 24 24 25 24 23 23 21 23 22 23 20 21 21 21 22 21 20 20 20 20 20 19 17 18 18 17 17 16
10 13 14 14 15 17 18 14 13 12 15 18 19 20 22 22 23 23 24 25 23 22 21 22 23 21 21 21 22 21 21 21 20 18 19 20 21 22 19 18 19 19 18 17 17
9 11 13 15 15 17 15 13 14 13 15 18 20 21 22 23 22 23 23 22 22 22 21 23 22 21 21 21 21 20 21 20 22 19 19 20 22 20 19 18 18 18 19 18 17
8 10 12 15 15 14 15 15 15 14 16 20 21 22 22 22 22 22 22 22 21 21 21 22 21 21 21 21 22 22 21 21 20 21 23 19 24 22 20 18 17 18 17 18 17
8 9 11 12 12 14 15 15 16 15 16 20 21 22 21 22 22 23 21 22 21 21 22 21 21 21 22 22 22 22 21 21 20 20 21 20 21 24 18 21 20 18 18 17 17
7 8 10 11 12 14 15 16 16 15 16 19 20 20 21 21 21 21 22 20 19 20 20 20 20 20 21 20 21 19 20 20 18 19 21 20 21 25 23 22 22 20 18 18 17
7 8 9 9 12 14 15 15 14 14 17 19 19 20 20 20 20 21 21 20 21 20 20 20 20 20 20 21 21 20 21 20 21 20 21 19 19 23 21 21 21 21 20 18 17
7 7 9 10 11 12 14 15 13 15 16 18 18 18 20 20 19 19 20 20 19 19 19 20 20 20 19 20 21 20 21 19 21 20 21 19 21 23 21 20 20 20 19 18 17
6 7 7 11 12 11 12 11 13 15 16 17 19 18 19 19 19 19 19 19 19 19 21 19 20 18 18 19 19 20 20 18 17 15 18 21 21 22 21 21 20 20 20 18 17
6 7 8 10 11 11 11 13 15 15 16 17 19 18 17 18 19 19 18 18 19 18 18 19 19 18 19 19 18 19 18 19 16 18 19 20 19 21 21 21 20 20 19 18 16
6 7 10 9 11 10 9 12 15 15 17 18 17 17 17 17 18 18 18 18 19 18 18 17 17 18 18 18 19 18 17 15 17 16 19 19 21 18 20 20 18 19 18 17 16
5 8 9 9 11 10 10 12 15 16 15 17 16 17 17 16 17 18 19 19 16 17 19 17 16 16 18 16 16 17 18 17 16 16 15 16 19 19 19 18 17 18 16 14 12
6 8 8 8 10 11 11 13 14 15 16 17 17 17 16 17 18 17 17 16 16 17 18 17 16 16 18 17 16 17 14 11 11 14 16 18 20 18 18 18 18 17 15 13 11
5 6 7 9 9 12 12 12 13 14 15 16 17 17 17 17 16 16 17 16 16 16 14 16 15 17 18 18 15 13 13 9 12 15 16 17 20 21 19 18 18 17 14 12 11
5 6 8 7 9 10 13 13 13 14 14 15 16 17 17 16 16 16 16 16 16 15 15 17 17 14 16 16 16 17 16 13 13 16 18 19 18 20 18 17 17 15 13 11 10
4 6 8 9 10 10 11 12 14 14 13 15 16 16 15 16 17 16 16 16 18 16 16 14 15 16 15 15 15 15 16 15 14 15 15 16 16 18 17 16 15 13 12 10 9
5 6 6 8 9 10 11 12 13 14 14 14 14 15 15 17 15 15 14 14 16 16 15 15 14 15 17 14 15 15 15 17 15 15 16 16 18 16 16 13 11 10 11 9 8
Height
850 847 843 840 836 833 830 827 823 820 818 815 813 810 808 807 806 805 806 808 807 806 807 809 812 814 816 823 826 832 846 856 857 860 871 876 878 883 883 883 885 885 884 887 892
851 847 843 841 837 832 829 826 823 819 816 814 812 809 807 806 805 804 807 804 803 803 805 807 813 814 819 825 830 836 847 855 853 855 863 873 876 878 881 882 886 886 889 888 891
851 847 844 840 836 833 828 825 822 818 814 812 810 807 806 805 806 803 803 800 800 800 803 805 811 813 825 829 838 843 849 857 859 860 864 871 874 878 877 879 879 880 884 888 892
850 847 845 840 835 832 828 824 821 817 813 811 809 805 804 805 821 801 801 797 797 798 803 806 810 820 835 839 841 849 857 856 862 863 865 870 872 876 876 871 872 878 884 888 891
852 848 844 840 834 830 826 823 820 815 812 810 807 804 803 807 808 802 799 797 796 799 803 808 813 824 835 840 841 852 860 860 862 865 868 869 870 873 875 875 878 882 886 889 891
852 848 844 838 833 829 825 822 818 814 811 809 806 804 803 815 805 801 797 797 797 799 804 806 812 820 836 847 846 855 858 865 869 868 870 870 874 871 878 880 882 884 886 888 891
851 848 843 838 834 829 823 819 815 812 810 808 806 805 805 810 806 801 798 798 795 797 804 810 814 817 837 852 855 858 865 866 870 871 872 869 872 870 875 880 883 885 887 888 891
849 846 843 839 835 828 821 816 812 811 809 808 806 805 810 806 806 805 802 801 800 799 802 813 815 824 837 847 857 861 865 869 869 871 873 871 868 873 875 877 880 884 887 888 889
848 845 843 839 834 826 818 813 811 810 809 807 807 807 813 806 807 808 806 806 807 805 807 813 817 836 843 849 860 864 866 872 872 868 871 873 869 873 877 877 877 880 883 886 888
847 845 843 839 833 827 819 812 810 809 810 809 807 812 810 814 810 810 810 809 809 809 810 815 829 843 849 849 860 863 867 872 867 866 870 873 867 871 874 876 873 875 878 881 884
847 845 842 838 834 830 819 812 815 815 814 821 816 813 812 812 811 811 810 810 811 814 825 827 832 847 842 850 847 854 859 860 863 864 865 864 863 861 865 871 870 871 872 875 879
846 844 842 839 836 833 827 829 839 841 833 818 816 813 810 810 814 811 811 814 818 830 829 833 837 839 843 847 845 854 862 864 866 868 868 865 855 850 859 858 857 861 866 868 873
846 844 842 840 837 835 834 839 838 837 837 821 814 813 811 810 816 815 812 815 823 831 832 834 833 835 841 848 850 856 860 864 858 868 869 865 851 849 849 851 852 853 855 860 864
846 844 842 839 839 837 836 837 837 836 842 825 819 814 812 810 817 813 813 816 826 835 835 837 837 838 841 846 843 850 850 857 864 863 862 866 855 844 844 848 849 846 849 851 857
846 843 842 841 839 839 839 836 835 837 863 824 818 813 812 816 817 816 814 814 829 834 834 841 843 842 841 837 837 847 845 854 863 865 865 867 868 837 849 840 836 839 841 844 848
845 843 841 842 839 839 837 835 835 855 862 826 818 820 820 819 820 817 817 815 824 834 836 843 838 840 840 842 839 847 851 858 867 868 873 865 866 838 838 837 830 830 832 836 842
843 842 842 842 839 838 836 835 857 865 834 828 826 821 824 827 825 823 826 830 834 846 847 846 845 841 840 845 845 847 853 874 873 878 871 870 874 840 836 832 831 826 824 827 833
841 839 837 838 838 839 838 844 867 848 841 825 825 826 828 825 829 829 831 836 834 837 851 850 858 848 845 845 844 849 849 869 874 876 866 870 862 840 834 831 829 826 825 826 830
840 836 835 835 837 840 843 861 849 841 830 830 827 831 831 827 829 829 833 836 831 832 841 853 853 848 848 846 847 851 856 857 874 890 879 858 848 834 834 831 830 828 825 827 830
840 837 834 835 835 840 847 843 834 829 825 827 829 831 837 833 831 832 836 831 830 829 832 843 855 853 849 847 849 849 854 864 876 882 879 864 863 845 837 834 832 830 830 829 831
841 837 832 833 836 842 848 841 830 823 821 825 829 833 831 832 832 835 834 831 827 833 833 840 849 859 852 853 853 857 860 869 867 876 868 871 850 842 838 837 838 833 833 832 831
842 839 831 832 835 837 840 833 825 819 821 821 825 826 828 831 832 833 830 828 829 829 834 840 853 863 856 857 855 854 855 855 868 877 882 878 855 836 836 837 839 835 836 838 838
844 837 831 833 831 828 830 825 824 822 822 819 822 821 824 827 831 829 830 830 828 830 832 836 852 866 856 858 857 857 863 877 875 871 870 867 849 836 837 838 836 837 838 840 841
847 843 836 832 829 822 825 827 826 826 826 817 817 819 823 827 828 831 831 831 830 830 836 832 849 848 854 848 857 869 866 882 870 869 862 857 843 827 837 837 834 835 839 843 845
846 839 834 836 827 826 822 821 824 825 824 820 819 816 818 829 830 831 831 832 832 833 836 831 845 856 852 850 852 850 855 864 866 854 852 840 845 830 836 837 835 837 841 844 849
847 839 834 827 823 824 826 819 816 821 826 822 818 816 818 822 820 829 827 830 826 834 834 838 850 848 854 854 853 852 847 851 856 854 853 850 846 832 835 838 838 841 842 849 854
844 841 843 831 823 821 814 815 815 816 819 820 825 820 820 814 814 817 821 823 822 826 836 838 847 851 849 859 855 855 842 838 844 847 844 846 833 838 838 844 848 848 848 853 857
Wind_Speed
22 24 25 26 26 23 22 21 19 18 18 18 17 16 12 1 8 5 5 4 9 1 6 11 12 14 7 4 4 2 4 6 9 13 8 9 5 1 2 6 2 2 3 10 21
21 23 25 26 27 25 23 21 19 18 17 17 17 16 12 5 6 3 9 10 2 4 10 12 10 7 4 3 4 4 3 6 6 8 13 10 6 9 6 7 3 6 8 17 18
21 23 24 26 27 28 25 22 20 17 17 17 18 17 11 4 1 2 15 9 2 6 8 14 13 4 6 4 6 4 3 5 4 7 13 11 9 3 12 7 8 16 17 17 15
22 22 24 26 27 28 28 24 21 17 16 16 17 16 7 2 3 5 16 3 3 11 18 12 4 5 5 5 2 8 5 3 10 10 10 11 12 7 7 3 12 15 20 16 14
23 24 24 26 27 30 29 27 23 18 14 14 15 15 3 5 2 18 10 6 15 16 11 5 5 5 6 8 13 10 6 7 10 8 6 9 6 4 5 7 15 16 16 15 13
22 24 26 25 27 30 32 28 24 17 11 11 13 10 2 4 11 14 1 13 12 13 6 3 6 13 11 5 4 7 14 11 6 6 3 6 5 2 5 8 11 11 12 14 14
22 23 25 26 28 30 33 28 22 13 6 8 10 7 4 2 10 12 9 11 20 22 13 14 13 5 9 13 12 15 14 9 4 1 3 0 2 1 10 11 11 10 11 11 13
20 21 25 26 28 31 33 29 16 7 5 3 7 4 1 5 7 14 17 23 22 25 32 26 24 13 5 16 5 7 4 5 3 1 2 3 2 2 13 14 13 10 10 11 14
20 20 23 26 27 32 32 27 6 8 3 2 2 4 2 4 5 10 12 14 21 25 24 17 12 7 9 14 6 2 6 3 5 5 4 2 1 4 11 13 13 12 11 11 10
18 20 22 25 26 31 30 13 5 5 3 1 5 4 5 3 5 6 8 3 4 2 5 7 6 5 6 2 5 5 4 2 4 7 4 5 6 6 13 14 15 14 13 13 13
17 18 21 23 23 26 28 5 8 5 9 2 1 3 2 6 2 5 4 1 2 7 3 3 8 13 16 2 5 8 6 5 4 6 8 10 7 12 17 15 16 15 15 14 15
20 18 19 21 20 18 15 7 4 2 6 4 5 4 3 1 1 4 6 2 4 3 3 3 6 9 9 6 8 5 4 4 1 1 8 4 14 11 14 20 21 20 17 17 15
20 18 18 14 16 9 12 10 12 1 2 5 3 2 2 2 3 2 3 2 4 2 0 3 6 12 8 5 3 3 3 5 2 4 2 4 7 5 7 14 14 17 17 16 18
20 18 17 12 3 11 2 16 11 2 3 3 2 2 0 3 2 0 3 2 4 4 3 4 1 7 7 5 4 1 7 6 10 4 1 2 5 4 2 10 14 17 19 19 18
19 18 14 9 8 4 8 14 7 1 3 3 1 2 2 4 1 2 3 4 5 4 3 1 1 2 4 4 4 3 8 6 3 2 1 1 3 5 2 6 11 15 20 20 20
18 17 14 7 5 5 13 10 2 5 5 1 0 1 3 3 2 2 2 6 4 4 5 2 1 2 3 3 1 11 6 6 3 1 2 1 2 4 2 3 5 2 15 19 20
18 16 12 9 2 7 13 3 4 3 3 2 2 2 2 2 2 2 2 3 3 4 2 2 2 2 1 4 3 2 4 1 0 0 4 1 3 8 9 5 5 10 7 14 18
19 19 12 12 5 6 7 3 4 4 4 2 2 3 4 3 1 2 3 3 2 4 3 5 2 1 4 0 4 2 3 4 5 3 1 4 5 3 3 5 7 6 6 3 13
20 13 7 7 6 2 2 2 8 7 3 5 2 3 2 1 4 2 2 4 4 5 4 4 2 2 3 2 2 4 3 2 6 2 1 3 4 6 4 6 11 10 10 6 5
17 7 5 3 6 7 2 5 4 4 3 1 6 2 6 5 3 4 5 2 4 4 2 5 3 1 2 1 4 0 4 3 2 3 4 2 4 4 5 11 11 12 10 9 4
7 3 2 8 10 2 4 5 5 6 4 3 5 3 3 5 5 4 4 1 1 3 3 3 3 1 1 2 5 2 1 5 4 1 2 1 4 4 2 3 7 9 9 9 7
4 2 3 14 4 2 4 6 2 3 2 2 3 2 5 6 4 4 6 2 2 4 5 1 4 3 1 1 1 0 2 3 3 4 0 1 5 2 3 2 2 7 7 8 6
2 2 3 4 6 5 2 3 1 4 4 6 5 3 2 5 3 3 4 1 2 4 6 6 1 2 1 0 2 2 1 3 4 2 6 3 4 3 1 5 7 7 6 5 5
2 1 2 2 1 4 5 3 5 3 7 3 4 3 3 2 2 5 3 0 1 3 1 7 3 5 5 2 3 2 4 2 3 3 4 6 7 13 3 8 9 5 3 4 5
2 2 3 4 5 1 6 8 10 2 2 3 1 4 6 3 2 3 2 2 2 3 2 3 3 2 1 2 2 1 4 7 7 5 6 4 8 9 8 8 6 4 2 4 6
2 2 3 1 2 12 5 8 14 11 4 5 2 6 5 7 7 8 6 4 4 2 2 2 4 2 2 2 2 4 7 8 10 5 11 10 16 5 1 6 7 9 1 5 8
4 9 2 5 2 7 13 7 9 11 14 16 10 4 4 5 4 1 3 4 4 7 4 4 5 3 2 2 2 5 8 10 5 4 5 6 5 2 5 7 8 8 5 9 10
Wind_Direction
8 9 10 8 5 5 1 360 357 355 353 352 351 349 351 45 132 111 72 8 328 160 162 143 135 135 104 84 76 123 93 147 149 162 141 145 148 91 104 120 94 17 125 134 148
0 3 4 3 2 0 358 356 355 351 348 347 346 350 346 325 176 80 6 350 293 189 149 144 140 127 75 72 46 52 108 155 158 141 150 154 157 138 158 148 119 113 113 142 152
354 354 356 358 358 356 354 350 352 349 344 344 342 349 346 336 135 294 346 335 305 192 159 157 136 96 72 48 19 49 105 142 116 130 139 141 137 177 161 186 181 164 159 155 153
346 348 349 351 353 353 352 348 346 346 342 341 341 345 354 57 162 316 332 313 175 141 132 121 82 67 68 57 25 104 60 146 136 137 138 155 135 152 217 220 169 159 150 152 155
342 342 344 345 347 347 350 345 342 341 340 339 345 347 82 50 293 325 331 125 135 137 128 114 90 110 104 109 85 86 105 89 119 120 115 134 134 153 144 126 137 140 153 158 155
339 339 339 341 344 345 345 343 338 334 340 338 348 357 57 76 337 340 247 155 129 129 124 132 135 115 83 58 40 108 105 100 76 99 114 135 130 224 166 147 142 149 160 166 165
335 336 338 337 339 342 341 340 337 328 344 341 347 18 58 178 2 19 127 127 124 118 97 99 122 88 120 96 110 115 103 101 98 60 113 111 138 228 151 160 157 162 165 168 175
342 339 336 335 337 340 339 338 336 330 336 21 349 19 143 23 61 61 83 92 108 107 102 99 90 90 80 123 100 107 96 133 177 206 174 323 198 158 161 166 174 180 183 190 187
342 341 332 333 338 340 338 335 339 336 330 40 55 55 105 10 55 20 85 100 100 100 99 101 78 84 124 124 113 26 153 148 184 178 151 278 289 170 174 187 188 191 192 195 198
333 341 336 333 341 342 338 332 330 5 338 32 72 65 10 322 334 356 133 45 98 70 71 59 73 105 134 178 171 168 141 179 197 187 192 189 231 181 189 203 206 201 200 203 206
335 334 336 339 345 347 347 360 15 360 30 353 291 143 232 325 346 17 358 88 40 52 93 32 134 157 170 247 121 125 136 155 214 188 192 219 239 202 201 210 217 218 210 208 212
344 327 332 341 344 358 27 57 59 294 318 303 268 274 251 83 34 352 5 111 65 106 108 71 161 164 128 98 94 85 140 183 111 190 215 224 254 243 200 216 215 214 217 211 207
348 332 326 342 340 4 52 41 342 183 240 301 264 245 212 107 145 295 24 122 104 97 130 174 164 147 155 155 128 146 183 187 173 133 206 287 269 243 218 225 223 222 220 214 208
346 343 330 337 12 350 45 351 350 184 46 276 250 292 152 134 52 245 27 103 46 144 110 86 95 153 161 203 177 96 174 149 139 171 268 308 299 277 236 244 227 226 217 213 208
345 344 342 341 326 334 323 337 355 99 40 274 211 305 23 135 108 13 14 52 129 130 144 196 172 167 168 199 159 137 131 123 134 87 295 158 272 282 2 265 245 233 227 218 212
341 342 338 331 304 305 326 329 54 42 256 199 187 120 81 18 35 323 74 52 127 91 44 91 333 26 0 41 54 147 94 70 73 91 280 328 238 278 241 295 308 268 226 219 211
334 334 320 289 280 331 338 14 47 143 314 206 175 153 124 143 86 57 60 61 145 111 130 29 343 329 54 89 84 85 97 59 223 239 234 116 179 261 312 315 299 312 275 219 211
331 326 304 253 271 316 348 63 122 242 242 358 109 93 159 160 43 101 101 141 108 97 122 156 232 357 359 22 190 181 166 157 203 207 262 156 233 244 298 315 345 353 344 238 202
332 341 301 250 268 250 72 115 192 208 198 170 53 107 176 202 131 111 152 191 195 168 162 151 193 320 43 339 341 182 189 111 103 44 330 254 283 290 324 22 20 21 19 9 217
337 322 271 238 158 113 122 227 224 208 186 170 184 153 180 191 140 167 185 204 194 163 154 185 114 17 304 175 35 26 128 112 30 163 239 278 271 243 359 355 3 13 8 8 331
323 324 311 195 143 98 188 222 238 226 180 177 189 154 188 173 167 177 175 266 165 126 95 138 114 279 269 205 178 140 146 59 105 123 200 297 257 210 200 353 353 1 0 355 356
334 276 319 170 154 188 172 179 277 259 153 197 143 138 173 170 149 194 198 199 107 153 154 134 122 147 182 346 352 291 229 152 134 199 194 56 271 180 222 303 324 339 353 1 13
310 286 353 204 199 199 198 194 92 0 254 171 203 203 180 174 162 194 198 121 155 151 165 181 85 90 20 300 17 200 100 92 102 92 194 167 260 179 242 328 326 321 344 9 35
300 287 322 224 307 226 185 210 172 188 267 241 157 129 120 121 14 172 158 123 49 117 259 99 130 163 189 193 133 179 185 197 131 150 172 227 273 271 343 327 324 324 4 42 55
239 247 217 228 222 189 221 190 197 202 209 284 175 200 159 132 92 157 154 105 62 158 77 136 151 102 137 99 157 206 194 186 195 186 201 277 218 286 317 310 315 341 23 63 73
271 258 346 248 241 194 222 222 204 200 137 268 225 201 184 155 183 195 152 193 185 170 135 4 139 148 120 36 214 259 254 218 230 238 255 276 283 284 14 344 350 356 6 92 93
251 280 234 271 252 183 219 201 221 170 204 244 301 159 189 216 164 309 84 90 138 152 141 127 138 117 229 333 331 284 233 216 190 184 179 227 262 1 337 9 4 350 101 114 117